Weather History for Denver, CO

Change the Weather History Date:

Saturday, April 27, 2013

  Actual Average (KDEN) Record (KDEN)
Temperature  
Mean Temperature 55 °F 50 °F  
Max Temperature 71 °F 65 °F 84 °F (1992)
Min Temperature 39 °F 36 °F 23 °F (1994)
Degree Days  
Heating Degree Days 10 15  
Month to date heating degree days 487  
Since 1 July heating degree days 5689  
Cooling Degree Days 0 0  
Month to date cooling degree days 0  
Year to date cooling degree days 0  
Growing Degree Days 5 (Base 50)    
Moisture  
Dew Point 30 °F    
Average Humidity 48    
Maximum Humidity 75    
Minimum Humidity 13    
Precipitation  
Precipitation 0.00 in 0.07 in 1.60 in (1919)
Month to date precipitation 1.50  
Year to date precipitation 3.20  
Snow  
Snow 0.00 in - - ()
Month to date snowfall  
Since 1 July snowfall  
Snow Depth -    
Sea Level Pressure  
Sea Level Pressure 30.16 in    
Wind  
Wind Speed 10 mph (SSW)    
Max Wind Speed 16 mph    
Max Gust Speed 21 mph    
Visibility 10 miles    
Events      
T = Trace of Precipitation, MM = Missing Value Source: NWS Daily Summary

Daily Weather History Graph

Daily Weather History Graph

Search for Another Location

Airport:

Trip Planner

Search our weather history database for the weather conditions in past years. The results will help you decide how hot, cold, wet, or windy it might be!

Date:

Astronomy

Apr. 27, 2013 Rise Set
Actual Time 6:03 AM MDT 7:48 PM MDT
Civil Twilight 5:34 AM MDT 8:17 PM MDT
Nautical Twilight 4:59 AM MDT 8:52 PM MDT
Astronomical Twilight 4:22 AM MDT 9:30 PM MDT
Moon 10:20 PM MDT (4/27) 7:24 AM MDT (4/27)
Length of Visible Light 14h 43m
Length of Day
13h 45m
Waning Gibbous, 95% of the Moon is Illuminated
Apr 27
Waning Gibbous
May 2
Last Quarter
May 9
New
May 17
First Quarter
May 24
Full

Hourly Weather History & Observations

Time (MDT) Temp. Windchill Dew Point Humidity Pressure Visibility Wind Dir Wind Speed Gust Speed Precip Events Conditions
12:15 AM 42.8 °F 39.3 °F 32.0 °F 66% 30.25 in 10.0 mi South 5.8 mph - N/A   Clear
12:35 AM 41.0 °F 35.8 °F 32.0 °F 70% 30.24 in 10.0 mi South 8.1 mph - N/A   Clear
12:55 AM 41.0 °F 37.1 °F 32.0 °F 70% 30.24 in 10.0 mi South 5.8 mph - N/A   Clear
1:14 AM 41.0 °F 36.4 °F 32.0 °F 70% 30.23 in 10.0 mi South 6.9 mph - N/A   Clear
1:35 AM 39.2 °F 31.6 °F 32.0 °F 75% 30.23 in 10.0 mi SSW 12.7 mph - N/A   Clear
1:54 AM 46.4 °F 40.4 °F 30.2 °F 53% 30.22 in 10.0 mi SSW 13.8 mph - N/A   Clear
2:15 AM 46.4 °F 40.1 °F 30.2 °F 53% 30.20 in 10.0 mi SSW 15.0 mph - N/A   Clear
2:55 AM 42.8 °F 36.6 °F 32.0 °F 66% 30.20 in 10.0 mi SSW 11.5 mph - N/A   Clear
3:15 AM 44.6 °F 38.1 °F 32.0 °F 61% 30.19 in 10.0 mi SSW 13.8 mph - N/A   Clear
3:34 AM 44.6 °F 38.4 °F 32.0 °F 61% 30.19 in 10.0 mi SSW 12.7 mph - N/A   Clear
3:55 AM 46.4 °F 41.1 °F 32.0 °F 57% 30.19 in 10.0 mi SSW 11.5 mph - N/A   Clear
4:14 AM 44.6 °F 39.2 °F 32.0 °F 61% 30.19 in 10.0 mi SW 10.4 mph - N/A   Clear
4:35 AM 44.6 °F 38.4 °F 32.0 °F 61% 30.19 in 10.0 mi SW 12.7 mph - N/A   Clear
4:55 AM 44.6 °F 38.8 °F 32.0 °F 61% 30.19 in 10.0 mi SW 11.5 mph - N/A   Clear
5:15 AM 44.6 °F 38.8 °F 32.0 °F 61% 30.19 in 10.0 mi SW 11.5 mph - N/A   Clear
5:35 AM 44.6 °F 39.2 °F 30.2 °F 57% 30.19 in 10.0 mi SW 10.4 mph - N/A   Clear
5:55 AM 44.6 °F 38.8 °F 30.2 °F 57% 30.19 in 10.0 mi SW 11.5 mph - N/A   Clear
6:15 AM 44.6 °F 38.8 °F 30.2 °F 57% 30.19 in 10.0 mi SSW 11.5 mph - N/A   Clear
6:34 AM 44.6 °F 38.8 °F 30.2 °F 57% 30.19 in 10.0 mi SSW 11.5 mph - N/A   Clear
6:45 AM 46.4 °F 41.5 °F 30.2 °F 53% 30.19 in 10.0 mi SW 10.4 mph - N/A   Clear
6:47 AM 46.4 °F 41.9 °F 30.2 °F 53% 30.20 in 40.0 mi SSW 9.2 mph - N/A   Clear
7:52 AM 53.6 °F - 28.4 °F 38% 30.20 in 40.0 mi SW 11.5 mph - N/A   Clear
8:50 AM 60.8 °F - 28.4 °F 29% 30.20 in 40.0 mi WSW 12.7 mph - N/A   Clear
10:50 AM 68.0 °F - 19.4 °F 16% 30.20 in 40.0 mi NW 12.7 mph 17.3 mph N/A   Clear
12:50 PM 69.8 °F - 19.4 °F 15% 30.17 in 40.0 mi NW 16.1 mph 20.7 mph N/A   Partly Cloudy
2:48 PM 71.6 °F - 23.0 °F 16% 30.13 in 40.0 mi North 10.4 mph - N/A   Partly Cloudy
4:48 PM 71.6 °F - 17.6 °F 13% 30.09 in 30.0 mi Calm Calm - N/A   Partly Cloudy
5:48 PM 71.6 °F - 24.8 °F 17% 30.08 in 30.0 mi Calm Calm - N/A   Scattered Clouds
6:48 PM 68.0 °F - 30.2 °F 24% 30.07 in 30.0 mi ENE 4.6 mph - N/A   Scattered Clouds
7:48 PM 62.6 °F - 30.2 °F 30% 30.07 in 30.0 mi East 8.1 mph - N/A   Partly Cloudy
8:55 PM 51.8 °F - 33.8 °F 50% 30.08 in 10.0 mi South 8.1 mph - N/A   Clear
9:15 PM 51.8 °F - 32.0 °F 47% 30.09 in 10.0 mi South 8.1 mph - N/A   Clear
9:35 PM 51.8 °F - 33.8 °F 50% 30.09 in 10.0 mi South 8.1 mph - N/A   Clear
9:55 PM 51.8 °F - 32.0 °F 47% 30.09 in 10.0 mi South 6.9 mph - N/A   Clear
10:15 PM 51.8 °F - 32.0 °F 47% 30.09 in 10.0 mi South 10.4 mph - N/A   Clear
10:35 PM 53.6 °F - 28.4 °F 38% 30.09 in 10.0 mi SSW 9.2 mph - N/A   Clear
10:55 PM 55.4 °F - 28.4 °F 36% 30.09 in 10.0 mi SSW 12.7 mph - N/A   Clear
11:15 PM 53.6 °F - 28.4 °F 38% 30.08 in 10.0 mi SW 10.4 mph - N/A   Clear
11:34 PM 53.6 °F - 28.4 °F 38% 30.08 in 10.0 mi SW 10.4 mph - N/A   Clear
11:55 PM 55.4 °F - 26.6 °F 33% 30.07 in 10.0 mi SW 11.5 mph - N/A   Clear